COSMO-SKYMED 4

Last updated on Sat Apr 13 2024 01:02:24 GMT+0100 (British Summer Time)

1 37216U 10060A 24103.56216104 .00000780 00000+0 10454-3 0 9992 2 37216 97.8866 287.6708 0001472 86.0048 274.1333 14.82164336726717
UTC large
Height (km)
Speed (km/s)
/
Latitude / Longitude
Inclination (degrees)
Orbital Period (minutes)
Azimuth
Elevation
Range (km)
Doppler Factor

Next 0 passes for location: London (51.5072 / 0.1276)

Sorry there are no passes over London.